Location: Sternwarte_Laufen
(47.9344°N, 12.9346°E)
Time: 15:57:01
(UTC+02:00)

ISS - Pass Details

Date: 09 May 2026
Orbit: 414 x 424 km, 51.6° (Epoch: 21 May)

Event Time Altitude Azimuth Distance (km) Brightness Sun altitude
Rises 21:40:13 0° 223° (SW) 2,339 0.1 -10.2°
Reaches altitude 10° 21:42:22 10° 216° (SW) 1,480 -1.0 -10.5°
Maximum altitude 21:45:29 38° 146° (SE) 646 -3.3 -10.9°
Drops below altitude 10° 21:48:37 10° 76° (ENE) 1,491 -1.3 -11.3°
Sets 21:50:47 0° 69° (ENE) 2,358 -0.2 -11.5°
